Location: Paris
(48.6709°N, 2.3750°E)
Time: 23:38:52
(UTC+02:00)

CUBESAT XI-V - Pass Details

Date: 03 July 2022
Orbit: 668 x 690 km, 98.1° (Epoch: 14 August)

Event Time Altitude Azimuth Distance (km) Brightness Sun altitude
Exits shadow 04:31:21 14° 221° (SW) 1,859 ? -10.3°
Maximum altitude 04:34:12 23° 267° (W) 1,410 ? -10.0°
Drops below altitude 10° 04:37:53 10° 321° (NW) 2,109 ? -9.6°
Sets 04:40:32 0° 335° (NNW) 3,026 ? -9.4°
